This is the latest recevied weather packets stored in our database for station/object N3OZD-10. If no packets are shown the sender has not sent any weather packets the latest 10 day(s).
| Time | Temp. | Humidity | Pressure | Rain* | Wind** | Luminosity | Snow |
|---|---|---|---|---|---|---|---|
| 1777498655 | 13.89° C | 86% | 1008.9 hPa | 0 mm | - | - | - |
| 1777498356 | 13.89° C | 86% | 1008.8 hPa | 0 mm | - | - | - |
| 1777498056 | 14.44° C | 86% | 1008.9 hPa | 0.51 mm | - | - | - |
| 1777497762 | 14.44° C | 86% | 1009 hPa | 0.51 mm | - | - | - |
| 1777497460 | 14.44° C | 85% | 1009 hPa | 0.51 mm | - | - | - |
| 1777497155 | 13.89° C | 85% | 1008.8 hPa | 0.51 mm | - | - | - |
| 1777496855 | 13.89° C | 85% | 1008.9 hPa | 0.51 mm | - | - | - |
| 1777496559 | 13.89° C | 86% | 1009.1 hPa | 0.51 mm | - | - | - |
| 1777496556 | 13.89° C | 86% | 1009.1 hPa | 0.51 mm | - | - | - |
| 1777496255 | 13.89° C | 86% | 1009.2 hPa | 0.51 mm | - | - | - |
| 1777495956 | 13.89° C | 82% | 1009.3 hPa | 0.51 mm | - | - | - |
| 1777495656 | 14.44° C | 84% | 1009.1 hPa | 0.51 mm | - | - | - |
| 1777495356 | 14.44° C | 82% | 1009.1 hPa | 0.51 mm | - | - | - |
| 1777495058 | 14.44° C | 81% | 1008.9 hPa | 0.51 mm | - | - | - |
| 1777494755 | 14.44° C | 82% | 1008.9 hPa | 0.51 mm | - | - | - |
| 1777494456 | 14.44° C | 78% | 1009.2 hPa | 0 mm | - | - | - |
| 1777494155 | 15° C | 73% | 1009.3 hPa | 0 mm | - | - | - |
| 1777493856 | 15.56° C | 68% | 1009.3 hPa | 0 mm | - | - | - |
| 1777493558 | 15.56° C | 66% | 1009.5 hPa | 0 mm | - | - | - |
| 1777493256 | 15° C | 67% | 1009.7 hPa | 0 mm | - | - | - |
| 1777492655 | 15° C | 67% | 1009.9 hPa | 0 mm | - | - | - |
| 1777492355 | 15° C | 68% | 1009.8 hPa | 0 mm | - | - | - |
| 1777492059 | 15° C | 67% | 1010 hPa | 0 mm | - | - | - |
| 1777491756 | 15° C | 67% | 1010 hPa | 0 mm | - | - | - |
| 1777491456 | 15° C | 66% | 1010 hPa | 0 mm | - | - | - |
* Rain latest hour (hover to see other rain measurements)
** Current wind speed in m/s (hover to see current wind gust speed)